DW2690 Weather Reports


Display with metric or nautical units.
time (UTC)temp
F
wind
direction
speed
MPH
gust
MPH
rain 1hr
in
rain 24hr
in
rain mn
in
humidity
%
barometer
mb
20190419002823 62 136 1.0 2.0 0.00 0.10 0.10 72 1017.5
20190419002311 62 100 0.0 4.0 0.00 0.10 0.10 72 1017.7
20190419001819 62 98 2.0 4.0 0.00 0.10 0.10 72 1017.8
20190419001328 62 107 0.0 2.0 0.00 0.10 0.10 71 1017.7
20190419000820 63 111 0.0 2.0 0.00 0.10 0.10 73 1017.8
20190419000309 63 114 0.0 2.0 0.00 0.10 0.10 70 1017.8
20190418235814 63 117 0.0 4.0 0.00 0.10 0.10 71 1017.9
20190418235324 63 360 0.0 4.0 0.00 0.10 0.10 71 1018.0
20190418234813 63 85 1.0 3.0 0.00 0.10 0.10 70 1018.1
20190418234326 62 84 0.0 0.0 0.00 0.10 0.10 71 1018.1
20190418233813 62 82 0.0 1.0 0.00 0.10 0.10 72 1018.1
20190418233324 62 82 0.0 3.0 0.00 0.10 0.10 73 1018.3
20190418232812 62 81 1.0 3.0 0.00 0.10 0.10 69 1018.4
20190418232325 63 82 0.0 4.0 0.00 0.10 0.10 71 1018.4
20190418231813 63 82 1.0 5.0 0.00 0.10 0.10 69 1018.5
20190418231322 63 108 1.0 5.0 0.00 0.10 0.10 68 1018.6
20190418230810 63 149 0.0 3.0 0.00 0.10 0.10 66 1018.6
20190418230319 63 10 0.0 3.0 0.00 0.10 0.10 72 1018.6
20190418225825 62 10 1.0 3.0 0.00 0.10 0.10 70 1018.7
20190418225316 62 109 0.0 5.0 0.00 0.10 0.10 69 1018.9
20190418224824 62 90 0.0 6.0 0.00 0.10 0.10 69 1018.9
20190418224313 62 123 1.0 4.0 0.00 0.10 0.10 68 1019.0
20190418223825 62 5 1.0 3.0 0.00 0.10 0.10 70 1019.0
20190418223314 62 86 0.0 2.0 0.00 0.10 0.10 73 1019.0
20190418222823 62 82 0.0 2.0 0.00 0.10 0.10 75 1019.2
20190418222312 61 84 0.0 2.0 0.00 0.10 0.10 73 1019.3
20190418221820 61 80 0.0 2.0 0.00 0.10 0.10 71 1019.4
20190418221329 61 81 0.0 2.0 0.00 0.10 0.10 69 1019.6
20190418220816 61 82 0.0 5.0 0.00 0.10 0.10 74 1019.7
20190418220324 61 81 1.0 6.0 0.00 0.10 0.10 74 1019.8
20190418215811 61 80 0.0 6.0 0.00 0.10 0.10 69 1019.9
20190418215323 61 81 1.0 3.0 0.00 0.10 0.10 72 1020.0
20190418214811 61 84 1.0 5.0 0.00 0.10 0.10 71 1020.0
20190418214320 61 90 2.0 5.0 0.00 0.10 0.10 73 1020.2
20190418213828 61 90 2.0 5.0 0.00 0.10 0.10 69 1020.1
20190418213318 61 80 1.0 4.0 0.00 0.10 0.10 68 1020.1
20190418212809 61 84 0.0 4.0 0.00 0.10 0.10 72 1020.2
20190418212319 61 74 1.0 4.0 0.00 0.10 0.10 75 1020.2
20190418211827 60 71 2.0 4.0 0.00 0.10 0.10 73 1020.3
20190418211316 60 63 0.0 3.0 0.00 0.10 0.10 79 1020.4
20190418210828 59 82 1.0 3.0 0.00 0.10 0.10 78 1020.5
20190418210315 59 86 1.0 5.0 0.00 0.10 0.10 78 1020.4
20190418205821 59 88 1.0 5.0 0.00 0.10 0.10 79 1020.6
20190418205313 59 71 1.0 3.0 0.00 0.10 0.10 81 1020.6
20190418204822 59 67 0.0 2.0 0.00 0.10 0.10 80 1020.6
20190418204311 59 67 1.0 2.0 0.00 0.10 0.10 81 1020.6
20190418203819 59 68 0.0 2.0 0.00 0.10 0.10 82 1020.8
20190418203311 59 68 0.0 2.0 0.00 0.10 0.10 82 1020.9
20190418202819 59 69 1.0 2.0 0.00 0.10 0.10 80 1020.9
20190418202312 59 67 0.0 2.0 0.00 0.10 0.10 82 1020.9
20190418201821 59 67 1.0 2.0 0.00 0.10 0.10 78 1021.0
20190418201310 58 67 0.0 3.0 0.00 0.10 0.10 84 1020.9
20190418200821 58 67 0.0 3.0 0.00 0.10 0.10 80 1020.9
20190418200311 58 27 0.0 2.0 0.00 0.10 0.10 87 1021.0
20190418195818 58 26 0.0 2.0 0.00 0.10 0.10 88 1021.1
20190418195311 58 26 0.0 2.0 0.00 0.10 0.10 88 1021.3
20190418194821 58 27 0.0 2.0 0.00 0.10 0.10 88 1021.5
20190418194313 58 27 0.0 2.0 0.00 0.10 0.10 87 1021.4
20190418193822 58 54 1.0 1.0 0.00 0.10 0.10 88 1021.5
20190418193314 58 55 0.0 2.0 0.00 0.10 0.10 85 1021.6
20190418192825 57 55 0.0 1.0 0.00 0.10 0.10 89 1021.6
20190418192317 57 55 0.0 1.0 0.00 0.10 0.10 89 1021.6
20190418191825 57 55 0.0 2.0 0.00 0.10 0.10 88 1021.7
20190418191314 57 57 0.0 2.0 0.00 0.10 0.10 89 1021.8
20190418190822 57 57 0.0 2.0 0.00 0.10 0.10 89 1021.9
20190418190311 56 57 1.0 2.0 0.00 0.10 0.10 92 1021.8
20190418185821 56 57 0.0 2.0 0.00 0.10 0.10 90 1021.7
20190418185310 56 57 0.0 2.0 0.00 0.10 0.10 91 1021.8
20190418184818 56 57 0.0 2.0 0.00 0.10 0.10 91 1021.9
20190418184327 56 57 1.0 2.0 0.00 0.10 0.10 91 1022.0
20190418183816 55 79 0.0 2.0 0.00 0.10 0.10 92 1022.0
20190418183325 55 79 1.0 2.0 0.00 0.10 0.10 91 1022.1
20190418182813 55 79 0.0 2.0 0.00 0.10 0.10 91 1022.1
20190418182322 55 360 0.0 3.0 0.00 0.10 0.10 91 1022.2
20190418181809 55 360 2.0 3.0 0.00 0.10 0.10 92 1022.2
20190418181327 55 61 0.0 0.0 0.00 0.10 0.10 94 1022.2
20190418180815 54 126 0.0 0.0 0.00 0.10 0.10 95 1022.2
20190418180325 54 132 0.0 0.0 0.00 0.10 0.10 95 1022.3
20190418175811 53 132 0.0 0.0 0.00 0.10 0.10 96 1022.2
20190418175319 53 131 0.0 0.0 0.00 0.10 0.10 95 1022.3
20190418174827 53 132 0.0 0.0 0.00 0.10 0.10 95 1022.3
20190418174317 52 132 0.0 0.0 0.00 0.10 0.10 95 1022.4
20190418173825 52 126 0.0 0.0 0.00 0.10 0.10 95 1022.3
20190418173313 52 128 0.0 0.0 0.00 0.10 0.10 96 1022.4
20190418172826 52 128 0.0 0.0 0.00 0.10 0.10 96 1022.5
20190418172315 52 128 0.0 0.0 0.00 0.10 0.10 96 1022.6
20190418171823 52 129 0.0 0.0 0.00 0.10 0.10 96 1022.6
20190418171311 52 130 0.0 0.0 0.00 0.10 0.10 95 1022.6
20190418170819 52 130 0.0 0.0 0.00 0.10 0.10 96 1022.7
20190418170328 52 130 0.0 0.0 0.00 0.10 0.10 96 1022.8
20190418165816 52 130 0.0 0.0 0.00 0.10 0.10 96 1022.7
20190418165307 52 130 0.0 0.0 0.00 0.10 0.10 97 1022.5
20190418164818 52 130 0.0 0.0 0.00 0.10 0.10 96 1022.5
20190418164314 51 130 0.0 0.0 0.00 0.10 0.10 97 1022.6
20190418163822 51 130 0.0 0.0 0.00 0.10 0.10 97 1022.7
20190418163311 51 130 0.0 0.0 0.00 0.10 0.10 96 1022.7
20190418162820 51 130 0.0 0.0 0.00 0.10 0.10 96 1022.8
20190418162310 51 130 0.0 0.0 0.00 0.10 0.10 96 1022.9
20190418161818 51 130 0.0 0.0 0.00 0.10 0.10 97 1022.9
20190418161328 51 130 0.0 0.0 0.00 0.10 0.10 97 1022.8
20190418160813 51 130 0.0 0.0 0.00 0.10 0.10 97 1022.7
20190418160321 51 130 0.0 0.0 0.01 0.10 0.10 97 1022.8
20190418155811 51 130 0.0 0.0 0.01 0.10 0.10 97 1022.8
20190418155324 51 130 0.0 0.0 0.01 0.10 0.10 97 1022.9
20190418154812 51 130 0.0 0.0 0.02 0.10 0.10 97 1023.0
20190418154322 51 129 0.0 0.0 0.02 0.10 0.10 97 1023.0
20190418153810 51 129 0.0 0.0 0.03 0.10 0.10 97 1023.1
20190418153319 50 129 0.0 0.0 0.04 0.10 0.10 97 1023.1
20190418152828 50 129 0.0 0.0 0.04 0.10 0.10 97 1023.1
20190418152318 50 128 0.0 0.0 0.05 0.10 0.10 97 1023.1
20190418151810 50 128 0.0 0.0 0.05 0.10 0.10 97 1023.2
20190418151318 50 126 0.0 0.0 0.05 0.10 0.10 97 1023.1
20190418150827 50 127 0.0 0.0 0.06 0.10 0.10 97 1023.2
20190418150316 50 126 0.0 0.0 0.05 0.09 0.09 97 1023.2
20190418145825 50 126 0.0 0.0 0.06 0.09 0.09 97 1023.3
20190418145313 50 126 0.0 0.0 0.07 0.09 0.09 96 1023.4
20190418144821 50 126 0.0 0.0 0.06 0.08 0.08 96 1023.3
20190418144310 50 126 0.0 0.0 0.06 0.08 0.08 96 1023.2
20190418143819 50 126 0.0 0.0 0.05 0.07 0.07 96 1023.3
20190418143316 50 126 0.0 0.0 0.04 0.06 0.06 96 1023.3
20190418142824 50 126 0.0 0.0 0.04 0.06 0.06 96 1023.3
20190418142312 50 126 0.0 0.0 0.03 0.05 0.05 96 1023.2
20190418141820 50 126 0.0 0.0 0.04 0.05 0.05 96 1023.3
20190418141311 50 126 0.0 0.0 0.04 0.05 0.05 96 1023.3
20190418140820 50 126 0.0 0.0 0.03 0.04 0.04 96 1023.4
20190418140308 50 126 0.0 0.0 0.03 0.04 0.04 96 1023.3
20190418135818 50 126 0.0 0.0 0.02 0.03 0.03 96 1023.3
20190418135328 50 126 0.0 0.0 0.01 0.02 0.02 96 1023.2
20190418134820 50 126 0.0 0.0 0.01 0.02 0.02 96 1023.2
20190418134329 50 126 0.0 0.0 0.01 0.02 0.02 96 1023.1
20190418133819 50 126 0.0 0.0 0.01 0.02 0.02 96 1023.0
20190418133324 50 126 0.0 0.0 0.01 0.02 0.02 96 1022.8
20190418132812 50 126 0.0 0.0 0.01 0.02 0.02 96 1022.7
20190418132320 50 126 0.0 0.0 0.01 0.02 0.02 96 1022.6
20190418131829 50 126 0.0 0.0 0.00 0.01 0.01 96 1022.8
20190418131318 50 126 0.0 0.0 0.00 0.01 0.01 96 1022.7
20190418130809 50 126 0.0 0.0 0.00 0.01 0.01 96 1022.7
20190418130323 50 126 0.0 0.0 0.00 0.01 0.01 96 1022.8
20190418125808 50 126 0.0 0.0 0.00 0.01 0.01 96 1022.9
20190418125321 50 126 0.0 0.0 0.00 0.01 0.01 96 1022.9
20190418124809 50 125 0.0 0.0 0.00 0.01 0.01 96 1023.0
20190418124320 50 126 0.0 0.0 0.00 0.01 0.01 96 1023.0
20190418123829 50 126 0.0 0.0 0.00 0.01 0.01 96 1023.1
20190418123317 50 126 0.0 0.0 0.00 0.01 0.01 96 1023.1
20190418122829 50 126 0.0 0.0 0.00 0.01 0.01 95 1023.1
20190418122314 50 126 0.0 0.0 0.00 0.01 0.01 95 1023.1
20190418121826 50 125 0.0 0.0 0.00 0.01 0.01 96 1023.0
20190418121316 50 125 0.0 0.0 0.00 0.01 0.01 96 1023.0
20190418120825 50 125 0.0 0.0 0.00 0.01 0.01 96 1023.0
20190418120314 50 126 0.0 0.0 0.00 0.01 0.01 95 1023.0
20190418115820 50 124 0.0 0.0 0.00 0.01 0.01 95 1023.1
20190418115329 50 124 0.0 0.0 0.00 0.01 0.01 95 1023.0
20190418114816 50 124 0.0 0.0 0.00 0.01 0.01 95 1023.1
20190418114326 50 124 0.0 0.0 0.00 0.01 0.01 95 1023.1
20190418113813 50 124 0.0 0.0 0.00 0.01 0.01 95 1023.0
20190418113327 50 124 0.0 0.0 0.00 0.01 0.01 95 1023.0
20190418112815 50 124 0.0 0.0 0.00 0.01 0.01 95 1023.1
20190418112324 50 124 0.0 0.0 0.00 0.01 0.01 95 1023.1
20190418111813 50 123 0.0 0.0 0.00 0.01 0.01 95 1023.2
20190418111321 50 122 0.0 0.0 0.00 0.01 0.01 95 1023.2
20190418110809 51 121 0.0 0.0 0.00 0.01 0.01 95 1023.3
20190418110319 51 124 0.0 0.0 0.00 0.01 0.01 95 1023.2
20190418105825 51 123 0.0 0.0 0.00 0.01 0.01 95 1023.2
20190418105317 51 123 0.0 0.0 0.00 0.01 0.01 95 1023.3
20190418104810 51 123 0.0 0.0 0.00 0.01 0.01 95 1023.4
20190418104319 51 124 0.0 0.0 0.00 0.01 0.01 94 1023.4
20190418103828 51 124 0.0 0.0 0.00 0.01 0.01 94 1023.4
20190418103315 51 126 0.0 0.0 0.01 0.01 0.01 94 1023.5
20190418102827 51 126 0.0 0.0 0.01 0.01 0.01 94 1023.5
20190418102317 51 128 0.0 0.0 0.01 0.01 0.01 94 1023.6
20190418101826 51 130 0.0 0.0 0.01 0.01 0.01 94 1023.6
20190418101316 51 130 0.0 1.0 0.01 0.01 0.01 94 1023.6
20190418100823 51 131 0.0 1.0 0.01 0.01 0.01 94 1023.7
20190418100317 51 131 0.0 1.0 0.01 0.01 0.01 94 1023.7
20190418095823 51 131 0.0 2.0 0.01 0.01 0.01 94 1023.7
20190418095312 51 131 0.0 1.0 0.01 0.01 0.01 94 1023.8
20190418094824 52 132 0.0 1.0 0.01 0.01 0.01 94 1023.8
20190418094314 52 132 0.0 0.0 0.01 0.01 0.01 94 1023.9
20190418093822 52 132 0.0 0.0 0.01 0.01 0.01 94 1024.0
20190418093311 52 132 0.0 1.0 0.00 0.00 0.00 94 1024.0
20190418092817 52 132 0.0 1.0 0.00 0.00 0.00 94 1024.1
20190418092311 52 132 0.0 0.0 0.00 0.00 0.00 93 1024.2
20190418091820 52 132 0.0 0.0 0.00 0.00 0.00 93 1024.3
20190418091325 52 132 0.0 0.0 0.00 0.00 0.00 93 1024.4
20190418090814 52 132 0.0 0.0 0.00 0.00 0.00 93 1024.4
20190418090322 52 132 0.0 0.0 0.00 0.00 0.00 93 1024.3
20190418085811 52 132 0.0 0.0 0.00 0.00 0.00 93 1024.4
20190418085320 52 132 0.0 0.0 0.00 0.00 0.00 93 1024.4
20190418084828 52 132 0.0 0.0 0.00 0.00 0.00 92 1024.5
20190418084317 52 132 0.0 0.0 0.00 0.00 0.00 92 1024.5
20190418083809 52 132 0.0 0.0 0.00 0.00 0.00 92 1024.5
20190418083321 52 132 0.0 0.0 0.00 0.00 0.00 92 1024.5
20190418082809 52 132 0.0 0.0 0.00 0.00 0.00 91 1024.6
20190418082319 52 132 0.0 1.0 0.00 0.00 0.00 91 1024.7
20190418081828 52 132 0.0 1.0 0.00 0.00 0.00 91 1024.7
20190418081318 52 132 0.0 0.0 0.00 0.00 0.00 90 1024.8
20190418080823 52 132 0.0 0.0 0.00 0.00 0.00 90 1024.8
20190418080312 53 132 0.0 0.0 0.00 0.00 0.00 90 1024.9
20190418075819 53 132 0.0 1.0 0.00 0.00 0.00 89 1025.0
20190418075322 53 132 0.0 1.0 0.00 0.00 0.00 89 1025.0
20190418074814 53 132 0.0 1.0 0.00 0.00 0.00 89 1025.1
20190418074323 53 132 0.0 1.0 0.00 0.00 0.00 88 1025.0
20190418073811 53 132 0.0 1.0 0.00 0.00 0.00 89 1025.1
20190418073320 53 132 0.0 1.0 0.00 0.00 0.00 89 1025.2
20190418072811 53 132 0.0 1.0 0.00 0.00 0.00 88 1025.1
20190418072321 53 132 0.0 1.0 0.00 0.00 0.00 88 1025.2
20190418071810 53 132 0.0 0.0 0.00 0.00 0.00 88 1025.2
20190418071320 53 132 0.0 0.0 0.00 0.00 0.00 87 1025.2
20190418070812 53 132 0.0 0.0 0.00 0.00 0.00 88 1025.3
20190418070321 53 132 0.0 0.0 0.00 0.00 0.00 87 1025.2
20190418065826 53 132 0.0 0.0 0.00 0.00 0.00 87 1025.3
20190418065315 53 132 0.0 0.0 0.00 0.00 0.00 87 1025.3
20190418064824 53 132 0.0 0.0 0.00 0.00 0.00 87 1025.3
20190418064316 53 132 0.0 0.0 0.00 0.00 0.00 87 1025.2
20190418063823 53 132 0.0 0.0 0.00 0.00 0.00 87 1025.3
20190418063312 53 132 0.0 0.0 0.00 0.00 0.00 87 1025.3
20190418062820 53 132 0.0 0.0 0.00 0.00 0.00 86 1025.3
20190418062312 53 132 0.0 0.0 0.00 0.00 0.00 86 1025.3
20190418061821 53 132 0.0 0.0 0.00 0.00 0.00 86 1025.3
20190418061329 53 132 0.0 0.0 0.00 0.00 0.00 87 1025.3
20190418060817 53 132 0.0 0.0 0.00 0.00 0.00 86 1025.3
20190418060326 53 132 0.0 0.0 0.00 0.00 0.00 86 1025.2
20190418055816 53 132 0.0 0.0 0.00 0.00 0.00 86 1025.2
20190418055326 53 132 0.0 0.0 0.00 0.00 0.00 87 1025.3
20190418054814 53 132 0.0 0.0 0.00 0.00 0.00 86 1025.2
20190418054322 53 132 0.0 0.0 0.00 0.00 0.00 86 1025.2
20190418053815 53 132 0.0 0.0 0.00 0.00 0.00 85 1025.3
20190418053324 53 132 0.0 0.0 0.00 0.00 0.00 85 1025.3
20190418052815 53 132 0.0 0.0 0.00 0.00 0.00 85 1025.3
20190418052325 53 132 0.0 0.0 0.00 0.00 0.00 85 1025.3
20190418051816 54 132 0.0 0.0 0.00 0.00 0.00 84 1025.3
20190418051325 54 132 0.0 0.0 0.00 0.00 0.00 85 1025.2
20190418050812 54 132 0.0 0.0 0.00 0.00 0.00 85 1025.1
20190418050322 54 132 0.0 0.0 0.00 0.00 0.00 84 1025.1
20190418045808 54 132 0.0 0.0 0.00 0.00 0.00 83 1024.9
20190418045324 54 132 0.0 0.0 0.00 0.00 0.00 83 1025.0
20190418044811 54 132 0.0 0.0 0.00 0.00 0.00 83 1025.0
20190418044321 54 132 0.0 0.0 0.00 0.00 0.00 82 1025.0
20190418043828 54 132 0.0 0.0 0.00 0.00 0.00 82 1025.0
20190418043318 55 132 0.0 0.0 0.00 0.00 0.00 82 1024.9
20190418042825 55 132 0.0 0.0 0.00 0.00 0.00 81 1024.9
20190418042313 55 132 0.0 0.0 0.00 0.00 0.00 80 1024.8
20190418041822 55 132 0.0 0.0 0.00 0.00 0.00 80 1024.8
20190418041312 55 132 0.0 0.0 0.00 0.00 0.00 81 1024.8
20190418040823 55 132 0.0 0.0 0.00 0.00 0.00 80 1024.8
20190418040313 55 132 0.0 0.0 0.00 0.00 0.00 79 1024.7
20190418035822 55 132 0.0 1.0 0.00 0.00 0.00 79 1024.5
20190418035310 55 132 0.0 1.0 0.00 0.00 0.00 80 1024.6
20190418034818 56 132 0.0 0.0 0.00 0.00 0.00 80 1024.6
20190418034327 56 50 0.0 0.0 0.00 0.00 0.00 78 1024.6
20190418033815 56 49 0.0 0.0 0.00 0.00 0.00 78 1024.5
20190418033324 56 48 0.0 0.0 0.00 0.00 0.00 80 1024.4
20190418032815 56 47 0.0 0.0 0.00 0.03 0.00 77 1024.4
20190418032329 56 46 0.0 0.0 0.00 0.03 0.00 75 1024.3
20190418031816 56 45 0.0 0.0 0.00 0.03 0.00 75 1024.4
20190418031325 57 46 0.0 0.0 0.00 0.03 0.00 74 1024.5
20190418030814 57 45 0.0 0.0 0.00 0.03 0.00 74 1024.4
20190418030320 57 44 0.0 0.0 0.00 0.03 0.00 72 1024.4
20190418025827 57 44 0.0 0.0 0.00 0.03 0.00 73 1024.4
20190418025317 57 43 0.0 0.0 0.00 0.03 0.00 72 1024.4
20190418024825 57 44 0.0 0.0 0.00 0.03 0.00 72 1024.3
20190418024317 58 44 0.0 1.0 0.00 0.03 0.00 72 1024.3
20190418023829 58 44 0.0 1.0 0.00 0.03 0.00 70 1024.3
20190418023318 58 42 0.0 0.0 0.00 0.03 0.00 70 1024.3
20190418022826 58 42 0.0 0.0 0.00 0.09 0.00 69 1024.3
20190418022314 58 43 0.0 1.0 0.00 0.09 0.00 70 1024.3
20190418021823 58 43 0.0 1.0 0.00 0.09 0.00 69 1024.2
20190418021312 58 43 1.0 1.0 0.00 0.09 0.00 69 1024.2
20190418020820 59 42 0.0 1.0 0.00 0.09 0.00 67 1024.3
20190418020328 59 43 0.0 1.0 0.00 0.09 0.00 67 1024.2
20190418015814 59 44 0.0 2.0 0.00 0.09 0.00 66 1024.2
20190418015311 59 45 0.0 4.0 0.00 0.09 0.00 63 1024.2
20190418014819 59 75 1.0 4.0 0.00 0.09 0.00 62 1024.4
20190418014324 59 78 2.0 4.0 0.00 0.09 0.00 61 1024.4
20190418013810 59 69 0.0 3.0 0.00 0.09 0.00 63 1024.4
20190418013321 59 68 2.0 4.0 0.00 0.09 0.00 63 1024.4
20190418012829 60 92 1.0 7.0 0.00 0.12 0.00 62 1024.5
20190418012317 60 76 3.0 8.0 0.00 0.12 0.00 60 1024.5
20190418011825 60 67 4.0 8.0 0.00 0.12 0.00 57 1024.4
20190418011315 60 105 0.0 4.0 0.00 0.12 0.00 60 1024.4
20190418010826 61 52 1.0 3.0 0.00 0.12 0.00 58 1024.3
20190418010316 61 51 2.0 3.0 0.00 0.12 0.00 58 1024.4
20190418005821 61 60 1.0 3.0 0.00 0.12 0.00 58 1024.3
20190418005311 61 61 1.0 4.0 0.00 0.12 0.00 59 1024.3
20190418004819 61 59 2.0 5.0 0.00 0.12 0.00 60 1024.3
20190418004328 61 78 1.0 5.0 0.00 0.12 0.00 59 1024.4
20190418003815 61 77 3.0 4.0 0.00 0.12 0.00 61 1024.4
20190418003326 61 67 1.0 4.0 0.00 0.12 0.00 62 1024.4